Zurück zum Katalog

FENGYUN 1C DEB

AktivSSO
NORAD 33740·DEBRIS·🇨🇳 China

Gestartet May 10, 1999 von Taiyuan Satellite Launch Center

Loading…

Nächste Überflüge (nächste 24 Stunden)

TLE

AktuellSource: Space-Track

Epoche: Sep 14, 2026, 06:48 UTC

1 33740U 99025DJD 26257.28372859  .00000091  00000-0  72164-4 0  9992
2 33740  98.6817 266.6843 0002539  91.3484 268.7979 14.12452350940368

Verfolge FENGYUN 1C DEB in Echtzeit mit AllMySat

Download on the App Store